This is the latest recevied weather packets stored in our database for station/object CE3SUR-16. If no packets are shown the sender has not sent any weather packets the latest 10 day(s).
| Time | Temp. | Humidity | Pressure | Rain* | Wind** | Luminosity | Snow |
|---|---|---|---|---|---|---|---|
| 1777712918 | 12.22° C | 99% | 957.2 hPa | - | - | - | - |
| 1777711121 | 11.67° C | 99% | 957.5 hPa | - | - | - | - |
| 1777709321 | 12.22° C | 99% | 957.7 hPa | - | - | - | - |
| 1777707521 | 12.22° C | 99% | 958 hPa | - | - | - | - |
| 1777705721 | 12.78° C | 99% | 958.3 hPa | - | - | - | - |
| 1777703921 | 12.78° C | 99% | 958.5 hPa | - | - | - | - |
| 1777702120 | 13.33° C | 99% | 958.9 hPa | - | - | - | - |
| 1777700316 | 13.33° C | 99% | 959 hPa | - | - | - | - |
| 1777698519 | 13.33° C | 99% | 959.1 hPa | - | - | - | - |
| 1777696719 | 13.33° C | 99% | 959.3 hPa | - | - | - | - |
| 1777694919 | 13.89° C | 99% | 959.7 hPa | - | - | - | - |
| 1777693118 | 13.89° C | 99% | 959.9 hPa | - | - | - | - |
| 1777691351 | 14.44° C | 99% | 960.1 hPa | - | - | - | - |
| 1777691318 | 14.44° C | 99% | 960.1 hPa | - | - | - | - |
| 1777689518 | 15° C | 99% | 960.2 hPa | - | - | - | - |
| 1777687718 | 15.56° C | 99% | 960.1 hPa | - | - | - | - |
| 1777686068 | 18.33° C | 99% | 960.1 hPa | - | - | - | - |
| 1777685917 | 18.33° C | 99% | 960.1 hPa | - | - | - | - |
| 1777684117 | 17.22° C | 99% | 960.1 hPa | - | - | - | - |
| 1777682317 | 18.33° C | 99% | 960.1 hPa | - | - | - | - |
| 1777680517 | 16.67° C | 99% | 960.1 hPa | - | - | - | - |
| 1777678716 | 16.67° C | 99% | 960 hPa | - | - | - | - |
| 1777676917 | 17.22° C | 99% | 959.9 hPa | - | - | - | - |
| 1777675117 | 18.89° C | 99% | 959.9 hPa | - | - | - | - |
| 1777673317 | 18.89° C | 99% | 959.8 hPa | - | - | - | - |
* Rain since midnight (hover to see other rain measurements)
** Current wind speed in m/s (hover to see current wind gust speed)